Radiation Dose at Monitoring Post of Fukushima Daini Nuclear Power Station
Date,Time,MP-1(microSv/h),MP-2(microSv/h),MP-3(microSv/h),MP-4(microSv/h),MP-5(microSv/h),MP-6(microSv/h),MP-7(microSv/h),Wind Direction,Wind Velocity(m/s),Rain
2018/12/07,00:00,0.237,0.189,0.299,0.287,0.276,0.151,0.094,north-northwest,4.9,No
2018/12/07,00:10,0.235,0.191,0.300,0.288,0.276,0.150,0.094,north-northwest,5.1,Yes
2018/12/07,00:20,0.235,0.190,0.300,0.289,0.278,0.151,0.093,north-northwest,4.9,No
2018/12/07,00:30,0.237,0.188,0.301,0.289,0.276,0.151,0.094,northwest,4.2,No
2018/12/07,00:40,0.236,0.188,0.299,0.289,0.276,0.151,0.093,northwest,4.3,No
2018/12/07,00:50,0.234,0.189,0.300,0.291,0.276,0.152,0.093,north-northwest,3.5,No
2018/12/07,01:00,0.237,0.188,0.302,0.289,0.276,0.152,0.093,north-northwest,2.6,No
2018/12/07,01:10,0.235,0.188,0.300,0.289,0.277,0.151,0.093,northwest,1.9,No
2018/12/07,01:20,0.234,0.188,0.300,0.289,0.276,0.152,0.094,west-northwest,1.5,No
2018/12/07,01:30,0.235,0.189,0.301,0.288,0.276,0.150,0.093,northwest,1.5,No
2018/12/07,01:40,0.237,0.189,0.300,0.288,0.277,0.152,0.093,west-northwest,1.2,No
2018/12/07,01:50,0.235,0.190,0.300,0.289,0.276,0.151,0.093,west,0.6,No
2018/12/07,02:00,0.236,0.189,0.301,0.288,0.277,0.150,0.093,east,1.1,No
2018/12/07,02:10,0.237,0.189,0.300,0.288,0.276,0.151,0.093,-,CALM,No
2018/12/07,02:20,0.236,0.189,0.299,0.289,0.277,0.151,0.093,northwest,0.8,No
2018/12/07,02:30,0.236,0.189,0.301,0.289,0.278,0.152,0.093,north,1.0,No
2018/12/07,02:40,0.238,0.188,0.302,0.290,0.277,0.151,0.092,-,CALM,No
2018/12/07,02:50,0.236,0.190,0.300,0.289,0.276,0.152,0.092,southeast,1.2,No
2018/12/07,03:00,0.236,0.189,0.300,0.288,0.276,0.151,0.094,south-southeast,2.2,No
2018/12/07,03:10,0.235,0.189,0.300,0.288,0.277,0.151,0.093,south-southeast,2.2,No
2018/12/07,03:20,0.237,0.189,0.300,0.289,0.277,0.151,0.094,south-southeast,2.8,No
2018/12/07,03:30,0.235,0.190,0.300,0.288,0.276,0.152,0.093,south-southeast,2.7,No
2018/12/07,03:40,0.236,0.189,0.301,0.289,0.277,0.151,0.093,southeast,3.1,No
2018/12/07,03:50,0.236,0.189,0.301,0.289,0.278,0.152,0.093,southeast,2.5,No
2018/12/07,04:00,0.236,0.189,0.300,0.289,0.275,0.152,0.094,southeast,3.2,No
2018/12/07,04:10,0.235,0.190,0.300,0.289,0.277,0.151,0.094,southeast,2.2,No
2018/12/07,04:20,0.236,0.189,0.302,0.291,0.276,0.151,0.094,southeast,2.6,No
2018/12/07,04:30,0.237,0.189,0.301,0.288,0.277,0.152,0.093,southeast,2.3,No
2018/12/07,04:40,0.236,0.190,0.300,0.289,0.276,0.153,0.094,southeast,2.2,No
2018/12/07,04:50,0.235,0.190,0.301,0.289,0.276,0.152,0.093,southeast,2.6,No
2018/12/07,05:00,0.236,0.189,0.300,0.290,0.276,0.153,0.094,south-southeast,2.4,No
2018/12/07,05:10,0.237,0.188,0.301,0.290,0.277,0.152,0.094,south-southeast,3.0,No
2018/12/07,05:20,0.235,0.189,0.301,0.289,0.277,0.153,0.093,south,2.8,No
2018/12/07,05:30,0.237,0.190,0.301,0.289,0.276,0.152,0.094,south,4.1,No
2018/12/07,05:40,0.237,0.189,0.301,0.289,0.276,0.151,0.094,south,2.0,No
2018/12/07,05:50,0.237,0.191,0.300,0.288,0.277,0.152,0.094,south,2.3,No
2018/12/07,06:00,0.237,0.190,0.301,0.290,0.276,0.151,0.095,south,2.1,No
2018/12/07,06:10,0.237,0.189,0.301,0.290,0.277,0.152,0.094,southwest,1.2,No
2018/12/07,06:20,0.236,0.190,0.301,0.288,0.278,0.151,0.094,-,CALM,No
2018/12/07,06:30,0.235,0.189,0.300,0.289,0.277,0.152,0.093,southwest,0.6,No
2018/12/07,06:40,0.237,0.189,0.302,0.290,0.277,0.152,0.093,west-southwest,1.1,No
2018/12/07,06:50,0.235,0.189,0.301,0.289,0.277,0.153,0.093,south,1.0,No
2018/12/07,07:00,0.237,0.189,0.300,0.288,0.277,0.152,0.094,south,1.5,No
2018/12/07,07:10,0.237,0.189,0.302,0.291,0.277,0.152,0.093,southeast,1.2,No
2018/12/07,07:20,0.236,0.190,0.301,0.289,0.277,0.152,0.094,south-southeast,2.0,No
2018/12/07,07:30,0.236,0.190,0.301,0.289,0.277,0.153,0.093,south-southeast,2.4,No
2018/12/07,07:40,0.238,0.190,0.302,0.290,0.277,0.152,0.094,southeast,2.2,No
2018/12/07,07:50,0.236,0.190,0.301,0.291,0.277,0.152,0.094,south-southeast,1.9,No
2018/12/07,08:00,0.236,0.190,0.300,0.289,0.277,0.152,0.094,south,2.6,No
2018/12/07,08:10,0.238,0.190,0.303,0.288,0.278,0.152,0.093,south-southeast,2.8,No
2018/12/07,08:20,0.236,0.191,0.300,0.289,0.277,0.152,0.093,south,3.0,No
2018/12/07,08:30,0.236,0.190,0.301,0.289,0.276,0.151,0.093,south-southeast,3.6,No
2018/12/07,08:40,0.237,0.190,0.301,0.287,0.278,0.151,0.094,south-southeast,2.9,No
2018/12/07,08:50,0.237,0.189,0.299,0.291,0.277,0.151,0.094,south-southeast,3.1,No
2018/12/07,09:00,0.235,0.190,0.300,0.291,0.276,0.152,0.093,south,3.7,No
2018/12/07,09:10,0.237,0.191,0.303,0.288,0.278,0.152,0.093,south-southeast,3.0,No
2018/12/07,09:20,0.237,0.190,0.301,0.290,0.277,0.153,0.093,south,3.7,No
2018/12/07,09:30,0.236,0.189,0.300,0.289,0.277,0.152,0.094,south-southeast,2.1,No
2018/12/07,09:40,0.238,0.190,0.301,0.288,0.278,0.152,0.094,south-southeast,2.2,No
2018/12/07,09:50,0.237,0.189,0.300,0.291,0.277,0.152,0.093,south,2.7,No
2018/12/07,10:00,0.239,0.189,0.301,0.290,0.279,0.153,0.093,south-southwest,3.7,No
2018/12/07,10:10,0.237,0.190,0.301,0.290,0.276,0.152,0.093,south,4.2,No
2018/12/07,10:20,0.237,0.189,0.301,0.289,0.279,0.151,0.093,south,4.4,No
2018/12/07,10:30,0.237,0.190,0.302,0.288,0.277,0.152,0.093,south,3.9,No
2018/12/07,10:40,0.238,0.189,0.300,0.291,0.278,0.152,0.093,south,3.4,No
2018/12/07,10:50,0.236,0.190,0.301,0.289,0.277,0.152,0.093,south-southwest,4.6,No
2018/12/07,11:00,0.237,0.191,0.301,0.291,0.278,0.152,0.093,south,5.2,No
2018/12/07,11:10,0.237,0.189,0.301,0.290,0.278,0.154,0.094,south,6.5,No
2018/12/07,11:20,0.236,0.191,0.302,0.289,0.277,0.152,0.093,south,7.0,No
2018/12/07,11:30,0.238,0.190,0.300,0.290,0.279,0.154,0.094,south,6.0,No
2018/12/07,11:40,0.236,0.191,0.301,0.288,0.277,0.152,0.093,south-southeast,5.9,No
2018/12/07,11:50,0.237,0.190,0.300,0.291,0.278,0.153,0.093,south,7.3,No
2018/12/07,12:00,0.236,0.190,0.299,0.290,0.276,0.152,0.094,south,7.5,No
2018/12/07,12:10,0.237,0.189,0.302,0.290,0.279,0.153,0.094,south,5.5,No
2018/12/07,12:20,0.236,0.190,0.300,0.289,0.277,0.152,0.093,south,4.4,No
2018/12/07,12:30,0.236,0.190,0.302,0.289,0.279,0.153,0.094,south-southwest,2.7,No
2018/12/07,12:40,0.237,0.190,0.299,0.291,0.278,0.152,0.093,west-southwest,3.7,No
2018/12/07,12:50,0.235,0.190,0.301,0.289,0.278,0.152,0.092,west-northwest,2.0,No
2018/12/07,13:00,0.237,0.189,0.301,0.291,0.279,0.153,0.093,-,CALM,No
2018/12/07,13:10,0.236,0.190,0.301,0.288,0.276,0.152,0.093,west-northwest,1.2,No
2018/12/07,13:20,0.237,0.188,0.300,0.290,0.276,0.153,0.093,west-northwest,5.1,No
2018/12/07,13:30,0.236,0.190,0.299,0.287,0.277,0.152,0.093,west-northwest,6.3,No
2018/12/07,13:40,0.237,0.189,0.303,0.290,0.278,0.153,0.093,west,7.4,No
2018/12/07,13:50,0.236,0.189,0.301,0.287,0.277,0.152,0.092,west,7.6,No
2018/12/07,14:00,0.236,0.190,0.302,0.289,0.276,0.152,0.093,west-northwest,8.1,No
2018/12/07,14:10,0.236,0.190,0.302,0.289,0.277,0.152,0.093,west,9.5,No
2018/12/07,14:20,0.238,0.190,0.302,0.291,0.279,0.153,0.093,west-northwest,9.8,No
2018/12/07,14:30,0.236,0.189,0.302,0.289,0.278,0.152,0.094,west-northwest,10.1,No
2018/12/07,14:40,0.237,0.191,0.302,0.291,0.279,0.153,0.093,west-northwest,10.9,No
2018/12/07,14:50,0.237,0.189,0.303,0.290,0.279,0.152,0.093,west-northwest,10.3,No
2018/12/07,15:00,0.236,0.189,0.302,0.289,0.279,0.153,0.093,west-northwest,11.7,No
2018/12/07,15:10,0.238,0.191,0.302,0.292,0.278,0.153,0.094,west-northwest,10.6,No
2018/12/07,15:20,0.238,0.191,0.303,0.290,0.278,0.152,0.094,west-northwest,11.7,No
2018/12/07,15:30,0.238,0.191,0.302,0.291,0.280,0.153,0.093,west-northwest,10.9,No
2018/12/07,15:40,0.237,0.191,0.304,0.291,0.278,0.152,0.093,west-northwest,10.6,No
2018/12/07,15:50,0.237,0.191,0.302,0.290,0.280,0.153,0.094,west-northwest,11.1,No
2018/12/07,16:00,0.238,0.191,0.302,0.292,0.279,0.153,0.093,west-northwest,12.2,No
2018/12/07,16:10,0.238,0.192,0.303,0.291,0.278,0.153,0.093,west,13.7,No
2018/12/07,16:20,0.238,0.190,0.303,0.290,0.280,0.154,0.093,west-northwest,13.1,No
2018/12/07,16:30,0.238,0.190,0.303,0.293,0.277,0.153,0.093,west-northwest,13.7,No
2018/12/07,16:40,0.238,0.190,0.303,0.292,0.278,0.154,0.093,west-northwest,16.4,No
2018/12/07,16:50,0.238,0.190,0.303,0.291,0.280,0.155,0.093,west-northwest,15.0,No
2018/12/07,17:00,0.239,0.190,0.304,0.293,0.279,0.153,0.093,west-northwest,15.5,No
2018/12/07,17:10,0.238,0.190,0.305,0.292,0.277,0.153,0.093,west-northwest,16.5,No
2018/12/07,17:20,0.238,0.191,0.304,0.291,0.280,0.153,0.094,west,21.2,No
2018/12/07,17:30,0.239,0.189,0.304,0.292,0.279,0.153,0.093,west-northwest,17.0,No
2018/12/07,17:40,0.237,0.191,0.304,0.292,0.278,0.152,0.093,west-northwest,16.8,No
2018/12/07,17:50,0.237,0.190,0.304,0.292,0.279,0.156,0.094,west-northwest,16.7,No
2018/12/07,18:00,0.240,0.191,0.305,0.292,0.279,0.154,0.094,west-northwest,15.7,No
2018/12/07,18:10,0.238,0.191,0.306,0.293,0.279,0.154,0.094,west-northwest,16.2,No
2018/12/07,18:20,0.238,0.192,0.305,0.292,0.279,0.155,0.093,west-northwest,18.5,No
2018/12/07,18:30,0.239,0.191,0.304,0.291,0.282,0.155,0.095,west-northwest,17.9,No
2018/12/07,18:40,0.240,0.191,0.305,0.292,0.280,0.154,0.094,west-northwest,16.1,No
2018/12/07,18:50,0.239,0.191,0.304,0.292,0.280,0.154,0.094,west-northwest,15.0,No
2018/12/07,19:00,0.239,0.192,0.305,0.292,0.280,0.154,0.094,west-northwest,14.9,No
2018/12/07,19:10,0.240,0.192,0.304,0.293,0.280,0.153,0.093,west-northwest,15.6,No
2018/12/07,19:20,0.239,0.191,0.305,0.293,0.279,0.154,0.094,west-northwest,18.6,No
2018/12/07,19:30,0.239,0.191,0.307,0.293,0.279,0.154,0.094,west-northwest,15.1,No
2018/12/07,19:40,0.238,0.191,0.305,0.292,0.281,0.153,0.093,west-northwest,14.9,No
2018/12/07,19:50,0.238,0.191,0.305,0.293,0.280,0.154,0.093,west-northwest,17.6,No
2018/12/07,20:00,0.239,0.191,0.305,0.292,0.279,0.153,0.093,west-northwest,17.1,No
2018/12/07,20:10,0.239,0.192,0.306,0.291,0.281,0.154,0.094,west-northwest,15.8,No
2018/12/07,20:20,0.240,0.192,0.306,0.292,0.279,0.153,0.094,west-northwest,15.6,No
2018/12/07,20:30,0.240,0.191,0.305,0.292,0.280,0.153,0.094,west-northwest,15.5,No
2018/12/07,20:40,0.240,0.191,0.307,0.292,0.279,0.154,0.094,west-northwest,14.2,No
2018/12/07,20:50,0.240,0.192,0.306,0.290,0.281,0.154,0.094,west-northwest,15.1,No
2018/12/07,21:00,0.238,0.193,0.305,0.291,0.281,0.154,0.094,west-northwest,13.7,No
2018/12/07,21:10,0.241,0.192,0.304,0.292,0.280,0.154,0.093,west-northwest,13.4,No
2018/12/07,21:20,0.239,0.191,0.305,0.294,0.279,0.154,0.095,west-northwest,13.6,No
2018/12/07,21:30,0.239,0.192,0.305,0.292,0.281,0.154,0.093,west-northwest,15.0,No
2018/12/07,21:40,0.240,0.192,0.307,0.292,0.280,0.154,0.094,west-northwest,13.9,No
2018/12/07,21:50,0.240,0.192,0.307,0.294,0.279,0.154,0.094,west-northwest,14.2,No
2018/12/07,22:00,0.239,0.192,0.305,0.292,0.278,0.154,0.094,northwest,13.1,No
2018/12/07,22:10,0.239,0.192,0.307,0.291,0.280,0.153,0.095,northwest,12.6,No
2018/12/07,22:20,0.240,0.191,0.305,0.292,0.280,0.154,0.093,west-northwest,14.4,No
2018/12/07,22:30,0.240,0.193,0.306,0.292,0.280,0.154,0.093,west-northwest,15.0,No
2018/12/07,22:40,0.239,0.192,0.305,0.292,0.280,0.155,0.094,northwest,14.2,No
2018/12/07,22:50,0.239,0.191,0.307,0.292,0.280,0.153,0.094,northwest,16.4,No
2018/12/07,23:00,0.240,0.191,0.305,0.293,0.279,0.155,0.094,west-northwest,15.6,No
2018/12/07,23:10,0.241,0.191,0.306,0.292,0.280,0.155,0.094,northwest,14.5,No
2018/12/07,23:20,0.239,0.191,0.307,0.294,0.280,0.154,0.095,northwest,12.3,No
2018/12/07,23:30,0.240,0.192,0.306,0.292,0.281,0.154,0.093,northwest,5.7,No
2018/12/07,23:40,0.239,0.192,0.305,0.293,0.280,0.154,0.094,north,6.3,No
2018/12/07,23:50,0.240,0.192,0.306,0.293,0.282,0.154,0.094,north,8.5,No
